Location: Banksville Park
(38.5557°N, 75.1182°W)
Time: 22:02:05
(UTC+00:00)

ATLAS 2AS CENTAUR R/B - Pass Details

Date: 19 September 2020
Orbit: 939 x 1273 km, 63.7° (Epoch: 19 October)

Event Time Altitude Azimuth Distance (km) Brightness Sun altitude
Rises 09:57:05 0° 330° (NNW) 4,129 5.6 -10.3°
Reaches altitude 10° 10:00:03 10° 335° (NNW) 3,119 5.0 -9.8°
Maximum altitude 10:07:15 50° 50° (NE) 1,399 3.8 -8.4°
Drops below altitude 10° 10:13:51 10° 125° (SE) 2,868 5.7 -7.1°
Sets 10:16:28 0° 130° (SE) 3,772 6.3 -6.6°
